Flag for Germany Weather past 2 weeks in Tönisvorst, North Rhine-Westphalia, Germany

Now
68 °F

Broken clouds.


Feels Like: 68 °F
Forecast: 59 / 77 °F
Wind: 8 mph from Northeast

Location: Monchengladbach Airport

Current Time: Jul 25, 2014 at 2:07:26 PM

Latest Report: Jul 25, 2014 at 1:20 PM


Visibility: N/A

Pressure: 29.95 "Hg

Humidity: 78%

Dew point: 61 °F

Location of TönisvorstLocation

Historic Weather in Tönisvorst — Graph

°F

Tönisvorst temperature yesterday

Maximum temperature yesterday: 81 °F (at 2:50 PM)
Minimum temperature yesterday: 63 °F (at 6:20 PM)
Average temperature yesterday: 73 °F

Past Weeks' High & Low Weather Summary

 TemperatureHumidityPressure
High91 °F (Jul 19, 4:50 PM)100% (Jul 10, 12:20 PM)30.18 "Hg (Jul 10, 12:20 PM)
Low59 °F (Jul 14, 7:50 AM)29% (Jul 19, 12:50 PM)29.71 "Hg (Jul 13, 6:20 PM)
Average73 °F73%29.96 "Hg
* Reported Jul 10 12:20 PM — Jul 25 12:50 PM, Tönisvorst, Weather by CustomWeather, © 2014

Note: Actual official high and low records may vary slightly from our data, if they occured in-between our weather recording intervals... More about our weather records

Advertising

Tönisvorst weather history for previous 24 hours

 ConditionsComfort  
Time TempWeatherWind HumidityBarometerVisibility
12:50 PM
Jul 25
68 °FPartly sunny.8 mph78%29.95 "HgN/A
12:20 PM68 °FScattered showers. Partly sunny.8 mph78%29.98 "HgN/A
11:50 AM66 °FBroken clouds.6 mph78%29.98 "HgN/A
11:20 AM66 °FPartly sunny.7 mph78%29.98 "HgN/A
10:50 AM66 °FPartly sunny.6 mph78%29.98 "HgN/A
10:20 AM66 °FPartly sunny.8 mph83%29.98 "HgN/A
9:50 AM66 °FPartly sunny.7 mph78%29.98 "HgN/A
9:20 AM64 °FPassing clouds.7 mph83%29.98 "HgN/A
8:50 AM64 °FPassing clouds.7 mph83%29.98 "HgN/A
8:20 AM64 °FPassing clouds.5 mph83%29.98 "HgN/A
7:50 AM63 °FPassing clouds.5 mph88%29.98 "HgN/A
8:20 PM
Jul 24
66 °FSprinkles. Passing clouds.7 mph78%29.98 "HgN/A
7:50 PM68 °FThundershowers. Passing clouds.6 mph73%29.98 "Hg4 mi
7:20 PM66 °FScattered showers. Passing clouds.1 mph83%29.95 "HgN/A
6:50 PM66 °FThundershowers. Passing clouds.3 mph83%29.95 "HgN/A
6:20 PM63 °FThundershowers. Passing clouds.6 mph83%29.95 "HgN/A
5:55 PM66 °FThunderstorms. Passing clouds.15 mph73%29.98 "Hg4 mi
5:20 PM77 °FThundershowers. Passing clouds.7 mph42%29.95 "HgN/A
4:50 PM75 °FThundershowers. Passing clouds.9 mph44%29.92 "HgN/A
4:20 PM81 °FThundershowers. Passing clouds.10 mph42%29.92 "HgN/A
3:50 PM81 °FClear.13 mph42%29.92 "Hg10 mi
3:20 PM81 °FClear.9 mph42%29.95 "Hg10 mi
2:50 PM81 °FPassing clouds.9 mph45%29.95 "HgN/A
2:20 PM79 °FPassing clouds.8 mph48%29.95 "HgN/A
Weather by CustomWeather, © 2014

See weather overviewHow to use our weather pages